Beverly, MA

2:35 PM EDT on October 22, 2017 (GMT -0400)
Beverly Municipal

Weather History for KBVY - February, 2013

Change the Weather History Date:

Friday, February 8, 2013

  Actual Average Record
Temperature  
Mean Temperature 26 °F -  
Max Temperature 33 °F 34 °F 50 °F (2017)
Min Temperature 19 °F 17 °F 8 °F (2000)
Degree Days  
Heating Degree Days 39    
Moisture  
Dew Point 24 °F    
Average Humidity 82    
Maximum Humidity 93    
Minimum Humidity 59    
Precipitation  
Precipitation 0.56 in - - ()
Sea Level Pressure  
Sea Level Pressure 30.11 in    
Wind  
Wind Speed 10 mph (ENE)    
Max Wind Speed 28 mph    
Max Gust Speed 46 mph    
Visibility 3 miles    
Events Fog , Snow    
Averages and records for this station are not official NWS values.
T = Trace of Precipitation, MM = Missing Value Source: NWS Daily Summary

Daily Weather History Graph

Daily Weather History Graph

Search for Another Location

Airport or City:

Trip Planner

Search our weather history database for the weather conditions in past years. The results will help you decide how hot, cold, wet, or windy it might be!

Date:

Astronomy

Feb. 08, 2013 Rise Set
Actual Time 6:49 AM EST 5:06 PM EST
Civil Twilight 6:20 AM EST 5:36 PM EST
Nautical Twilight 5:46 AM EST 6:09 PM EST
Astronomical Twilight 5:14 AM EST 6:42 PM EST
Moon 5:16 AM EST (2/8) 3:35 PM EST (2/8)
Length of Visible Light 11h 16m
Length of Day
10h 17m
Waning Crescent, 3% of the Moon is Illuminated
Feb 8
Waning Crescent
Feb 10
New
Feb 17
First Quarter
Feb 25
Full
Mar 4
Last Quarter

Hourly Weather History & Observations

Time (EST) Temp. Windchill Dew Point Humidity Pressure Visibility Wind Dir Wind Speed Gust Speed Precip Events Conditions
12:26 AM 26.6 °F - 14.0 °F 59% 30.48 in 10.0 mi Calm Calm - N/A   Overcast
12:53 AM 26.1 °F 20.5 °F 15.1 °F 63% 30.47 in 10.0 mi NE 4.6 mph - N/A   Overcast
1:02 AM 26.6 °F 21.2 °F 15.8 °F 64% 30.47 in 10.0 mi NE 4.6 mph - N/A   Overcast
1:53 AM 27.0 °F 21.6 °F 17.1 °F 66% 30.45 in 9.0 mi NE 4.6 mph - 0.00 in Snow Light Snow
2:53 AM 27.0 °F 20.5 °F 21.0 °F 78% 30.41 in 4.0 mi NE 5.8 mph - 0.00 in Snow Light Snow
3:10 AM 26.6 °F 20.0 °F 21.2 °F 80% 30.41 in 2.5 mi NE 5.8 mph - 0.00 in Snow Light Snow
3:18 AM 26.6 °F 20.0 °F 21.2 °F 80% 30.40 in 4.0 mi NE 5.8 mph - 0.00 in Snow Light Snow
3:53 AM 28.9 °F 21.1 °F 23.0 °F 78% 30.38 in 7.0 mi East 8.1 mph - 0.00 in Snow Light Snow
4:53 AM 30.0 °F 20.0 °F 24.1 °F 79% 30.37 in 5.0 mi East 12.7 mph 19.6 mph 0.00 in Snow Light Snow
5:53 AM 30.9 °F 20.7 °F 23.0 °F 72% 30.35 in 10.0 mi ESE 13.8 mph 21.9 mph 0.00 in   Overcast
6:53 AM 30.9 °F 20.7 °F 23.0 °F 72% 30.34 in 10.0 mi East 13.8 mph - 0.00 in   Overcast
7:53 AM 32.0 °F 22.5 °F 21.9 °F 66% 30.34 in 10.0 mi East 12.7 mph 21.9 mph 0.00 in   Overcast
8:53 AM 32.0 °F 21.6 °F 23.0 °F 69% 30.31 in 10.0 mi East 15.0 mph 20.7 mph N/A   Overcast
9:53 AM 33.1 °F 24.9 °F 24.1 °F 70% 30.29 in 8.0 mi East 10.4 mph - 0.00 in   Overcast
10:32 AM 33.8 °F 23.5 °F 26.6 °F 75% 30.28 in 2.0 mi East 16.1 mph 21.9 mph 0.00 in Snow Light Snow
10:41 AM 33.8 °F 24.8 °F 26.6 °F 75% 30.27 in 1.8 mi East 12.7 mph 24.2 mph 0.00 in Snow Light Snow
10:50 AM 33.8 °F 24.8 °F 26.6 °F 75% 30.27 in 2.0 mi East 12.7 mph 18.4 mph 0.00 in Snow Light Snow
10:53 AM 33.1 °F 23.4 °F 27.0 °F 78% 30.26 in 1.8 mi East 13.8 mph 19.6 mph 0.00 in Snow Light Snow
11:43 AM 33.8 °F 25.8 °F 28.4 °F 81% 30.22 in 0.8 mi ENE 10.4 mph - 0.01 in Snow Light Snow
11:53 AM 33.1 °F 24.9 °F 28.9 °F 85% 30.20 in 0.8 mi ENE 10.4 mph - 0.01 in Snow Light Snow
12:53 PM 33.1 °F 23.0 °F 28.9 °F 85% 30.16 in 0.8 mi East 15.0 mph 21.9 mph 0.02 in Snow Light Snow
1:34 PM 32.0 °F 22.1 °F 28.4 °F 87% 30.13 in 1.0 mi East 13.8 mph 28.8 mph 0.01 in Snow Light Snow
1:48 PM 32.0 °F 23.0 °F 28.4 °F 87% 30.13 in 0.5 mi ENE 11.5 mph 19.6 mph 0.01 in Fog , Snow Snow
1:53 PM 32.0 °F 22.5 °F 28.0 °F 85% 30.12 in 0.5 mi ENE 12.7 mph 19.6 mph 0.01 in Fog , Snow Snow
2:53 PM 30.9 °F 19.8 °F 28.0 °F 89% 30.07 in 0.5 mi ENE 16.1 mph 23.0 mph 0.02 in Fog , Snow Snow
3:53 PM 30.9 °F 21.7 °F 27.0 °F 85% 30.02 in 0.5 mi ENE 11.5 mph 29.9 mph 0.03 in Fog , Snow Snow
4:06 PM 30.2 °F 18.5 °F 28.4 °F 93% 30.01 in 0.2 mi ENE 17.3 mph 26.5 mph 0.00 in Fog , Snow Snow
4:15 PM 30.2 °F 18.9 °F 28.4 °F 93% 30.00 in 0.5 mi ENE 16.1 mph 28.8 mph 0.01 in Fog , Snow Snow
4:23 PM 30.2 °F 17.4 °F 26.6 °F 86% 29.99 in 0.2 mi NE 20.7 mph 29.9 mph 0.01 in Fog , Snow Snow
4:36 PM 30.2 °F 18.9 °F 28.4 °F 93% 29.98 in 0.5 mi NE 16.1 mph 28.8 mph 0.02 in Fog , Snow Snow
4:53 PM 30.9 °F 19.1 °F 28.0 °F 89% 29.96 in 0.5 mi ENE 18.4 mph 35.7 mph 0.02 in Fog , Snow Snow
5:53 PM 32.0 °F 21.6 °F 28.0 °F 85% 29.92 in 0.5 mi ENE 15.0 mph 35.7 mph 0.04 in Fog , Snow Snow
6:53 PM 30.9 °F 18.4 °F 28.9 °F 92% 29.88 in 0.5 mi NE 20.7 mph 40.3 mph 0.08 in Fog , Snow Snow
7:10 PM 30.2 °F 17.4 °F 28.4 °F 93% 29.86 in 0.5 mi NE 20.7 mph 35.7 mph 0.02 in Fog , Snow Snow
7:24 PM 30.2 °F 16.8 °F 28.4 °F 93% 29.84 in 0.2 mi NE 23.0 mph 36.8 mph 0.04 in Fog , Snow Snow
7:53 PM 30.9 °F 16.7 °F 28.0 °F 89% 29.81 in 0.2 mi NE 27.6 mph 43.7 mph 0.08 in Fog , Snow Snow
8:53 PM 30.0 °F 16.9 °F 27.0 °F 88% 29.74 in 0.2 mi NE 21.9 mph 46.0 mph 0.09 in Fog , Snow Heavy Snow
9:37 PM 21.2 °F - 19.4 °F 93% 29.72 in 0.2 mi North - - 0.07 in Fog Light Freezing Fog
9:53 PM 21.0 °F - 18.0 °F 88% 29.72 in 0.2 mi North - - 0.09 in Fog Light Freezing Fog
10:19 PM 19.4 °F - 15.8 °F 86% 29.72 in 0.5 mi North - - 0.02 in Fog Light Freezing Fog
10:53 PM 19.9 °F - 16.0 °F 85% 29.65 in 0.5 mi North - - 0.03 in Fog Light Freezing Fog
11:20 PM 19.4 °F - 17.6 °F 93% 29.62 in 0.2 mi North - - 0.02 in Fog Light Freezing Fog
11:53 PM 19.9 °F - 16.0 °F 85% 29.60 in 0.5 mi North - - 0.04 in Fog Light Freezing Fog